This demonstration page uses our WeatherBlox Daily Observations layout. Learn more.

Left ArrowRight Arrow

38.83388, -104.82136

Hourly Observations for January 26, 2017

Temp ( °F °C ) Dew Point ( °F °C ) Humidity (%) Winds ( mph kmh ) Pressure ( in mb ) Visibility ( mi km ) Precip ( " mm )
12:58 am 00:58 Mostly Cloudy 15 -9.4 11 -11.8 83 83 Calm 29.90 1013 10 16 0.00 0.00
1:14 am 01:14 Mostly Cloudy with Light Snow 14 -10 10 -12 85 85 Calm 30.30 1026 10 16 0.00 0.00
1:58 am 01:58 Mostly Cloudy with Light Snow Showers 14 -9.8 12 -11.3 89 89 SSW 3 6 29.91 1013 10 16 0.00 0.00
2:58 am 02:58 Mostly Cloudy with Light Snow 15 -9.7 12 -11.1 90 90 Calm 29.91 1013 5 8 0.00 0.00
3:13 am 03:13 Mostly Cloudy with Light Snow 14 -10 12 -11 92 92 Calm 30.30 1026 10 16 0.00 0.00
3:33 am 03:33 Mostly Cloudy with Light Snow 14 -10 12 -11 92 92 Calm 30.30 1026 7 11 0.00 0.00
3:43 am 03:43 Mostly Cloudy with Light Snow 14 -10 12 -11 92 92 Calm 30.30 1026 2 3 0.00 0.00
3:48 am 03:48 Mostly Cloudy with Light Snow 14 -10 12 -11 92 92 Calm 30.30 1026 2 3 0.00 0.00
3:58 am 03:58 Cloudy with Light Snow 14 -9.9 13 -10.6 95 95 Calm 29.91 1013 2 3 0.00 0.00
4:03 am 04:03 Cloudy with Light Snow 14 -10 12 -11 92 92 Calm 30.30 1026 2 2 0.00 0.00
4:08 am 04:08 Cloudy with Light Snow 14 -10 14 -10 100 100 Calm 30.30 1026 3 5 0.00 0.00
4:13 am 04:13 Cloudy with Light Snow 14 -10 14 -10 100 100 Calm 30.30 1026 3 5 0.00 0.00
4:28 am 04:28 Mostly Cloudy with Light Snow 14 -10 14 -10 100 100 SE 3 6 30.30 1026 1 2 0.00 0.00
4:58 am 04:58 Mostly Cloudy with Light Snow 14 -9.9 12 -11 92 92 SSE 5 7 29.91 1013 2 3 0.00 0.00
5:18 am 05:18 Mostly Cloudy with Light Snow 14 -10 12 -11 92 92 SSE 6 9 30.30 1026 3 5 0.00 0.00
5:28 am 05:28 Mostly Cloudy with Light Snow 14 -10 12 -11 92 92 ESE 3 6 30.30 1026 1 2 0.00 0.00
5:43 am 05:43 Cloudy with Light Snow 14 -10 12 -11 92 92 Calm 30.33 1027 1 2 0.00 0.00
5:58 am 05:58 Cloudy with Light Snow 13 -10.8 11 -11.6 94 94 Calm 29.94 1014 5 8 0.00 0.00
6:23 am 06:23 Mostly Cloudy with Light Snow 12 -11 10 -12 92 92 Calm 30.36 1028 3 5 0.00 0.00
6:53 am 06:53 Mostly Cloudy with Light Snow 12 -11 10 -12 92 92 SSE 7 11 30.36 1028 1 2 0.00 0.00
6:58 am 06:58 Mostly Cloudy with Light Snow 12 -10.9 11 -11.8 93 93 SSE 7 11 29.96 1015 1 2 0.00 0.00
7:13 am 07:13 Mostly Cloudy with Light Snow 12 -11 10 -12 92 92 SSE 8 13 30.39 1029 8 13 0.00 0.00
7:23 am 07:23 Mostly Cloudy with Light Snow 12 -11 10 -12 92 92 SSE 7 11 30.39 1029 6 10 0.00 0.00
7:58 am 07:58 Mostly Cloudy with Light Snow 11 -11.5 10 -12.4 93 93 S 10 17 29.98 1015 10 16 0.00 0.00
8:18 am 08:18 Mostly Cloudy with Light Snow 12 -11 10 -12 92 92 S 12 19 30.39 1029 6 10 0.00 0.00
8:53 am 08:53 Mostly Cloudy with Light Snow 14 -10 12 -11 92 92 SSE 15 24 30.36 1028 3 4 0.00 0.00
8:58 am 08:58 Mostly Cloudy with Light Snow 14 -10.1 11 -11.6 89 89 SSE 14 22 29.98 1015 3 4 0.00 0.00
9:58 am 09:58 Mostly Cloudy with Light Snow 16 -8.8 11 -11.9 79 79 S 14 22 29.99 1016 3 4 0.00 0.00
10:53 am 10:53 Mostly Cloudy with Light Snow 18 -8 12 -11 79 79 SSE 14 22 30.33 1027 2 3 0.00 0.00
10:58 am 10:58 Mostly Cloudy with Light Snow 17 -8.2 11 -11.4 78 78 SSE 14 22 29.98 1015 2 4 0.00 0.00
11:58 am 11:58 Mostly Cloudy with Light Snow 20 -6.8 15 -9.4 82 82 SE 13 20 29.96 1015 10 16 0.00 0.00
12:08 pm 12:08 Mostly Cloudy with Light Snow Showers 21 -6 14 -10 74 74 SE 17 28 30.24 1024 10 16 0.00 0.00
12:11 pm 12:11 Mostly Cloudy 19 -7 12 -11 73 73 SE 16 26 30.27 1025 10 16 0.00 0.00
12:26 pm 12:26 Cloudy with Light Snow Showers 19 -7 12 -11 73 73 SSE 15 24 30.27 1025 10 16 0.00 0.00
12:58 pm 12:58 Mostly Cloudy with Light Snow Showers 19 -7.1 12 -10.9 75 75 SE 12 19 29.94 1014 10 16 0.00 0.00
1:00 pm 13:00 Mostly Cloudy with Light Snow Showers 19 -7 12 -11 73 73 SSE 12 19 30.24 1024 10 16 0.00 0.00
1:58 pm 13:58 Cloudy with Light Snow Showers 19 -7 11 -11.5 71 71 SSE 10 17 29.94 1014 6 10 0.00 0.00
2:58 pm 14:58 Cloudy with Light Snow 19 -7.3 14 -10.1 81 81 NNE 5 7 29.96 1015 3 4 0.00 0.00
3:59 pm 15:59 Cloudy with Light Snow 18 -7.8 15 -9.7 86 86 NW 6 9 30.00 1016 1 2 0.00 0.00
4:04 pm 16:04 Cloudy with Snow 18 -8 14 -10 86 86 Calm 30.33 1027 1 1 0.00 0.00
4:19 pm 16:19 Cloudy with Snow 18 -8 14 -10 86 86 Calm 30.33 1027 1 2 0.00 0.00
4:34 pm 16:34 Cloudy with Light Snow 18 -8 16 -9 93 93 E 5 7 30.33 1027 6 10 0.00 0.00
5:43 pm 17:43 Cloudy with Light Snow Showers 19 -7 10 -12 68 68 NNE 5 7 30.33 1027 10 16 0.00 0.00
5:48 pm 17:48 Cloudy 18 -8 14 -10 86 86 Calm 30.33 1027 10 16 0.00 0.00
6:34 pm 18:34 Cloudy with Snow Showers 18 -8 14 -10 86 86 N 13 20 30.33 1027 5 8 0.00 0.00
7:58 pm 19:58 Cloudy with Light Snow 16 -8.9 13 -10.4 89 89 NNW 8 13 30.08 1019 1 2 0.00 0.00
8:08 pm 20:08 Cloudy with Light Snow 16 -9 12 -11 86 86 NNW 12 19 30.42 1030 2 2 0.00 0.00
8:58 pm 20:58 Mostly Cloudy 15 -9.5 10 -12.3 80 80 NW 10 17 30.08 1019 10 16 0.00 0.00
9:35 pm 21:35 Partly Cloudy with Isolated Snow Showers 14 -10 9 -13 79 79 NNW 7 11 30.45 1031 10 16 0.00 0.00
10:58 pm 22:58 Clear with Light Snow Showers 13 -10.8 6 -14.6 74 74 WNW 6 9 30.11 1020 10 16 0.00 0.00

Powered by AerisWeather